Tracking 29892 objects as of 21-Nov-2024
HD Live streaming from Space Station
objects crossing your sky now

CRRES DEB (CANISTER)

Track CRRES DEB (CANISTER) now!


NORAD ID: 21636
Int'l Code: 1990-065N
Perigee: 397.0 km
Apogee: 34,740.4 km
Inclination: 17.3 °
Period: 614.4 minutes
Semi major axis: 23939 km
RCS: 0.0764 m2 (small)
Launch date: July 25, 1990
Source: United States (US)
Launch site: AIR FORCE EASTERN TEST RANGE (AFETR)

Note: This is SATELLITE DEBRIS
Your satellite tracking list
Your tracking list is empty




NASA's NSSDC Master Catalog

Two Line Element Set (TLE):
1 21636U 90065N   24323.90777234  .00000442  00000-0  99025-3 0  9999
2 21636  17.2548 186.6432 7172884 256.8054  20.8597  2.34381900107520
Source of the keplerian elements: AFSPC